Location: Newark
(23.3970°S, 47.6010°W)
Time: 01:24:19
(UTC+00:00)

Hubble Space Telescope - Visible Passes

Search period start: 29 January 2020 00:00
Search period end: 08 February 2020 00:00
Orbit: 536 x 540 km, 28.5° (Epoch: 28 January)

Date Brightness Start Highest point End Pass type
(mag) Time Alt. Az. Time Alt. Az. Time Alt. Az.
29 Jan 2.6 00:21:47 10° WSW 00:24:19 30° SW 00:24:19 30° SW visible
29 Jan 1.8 22:29:40 10° W 22:33:40 44° S 22:37:41 10° ESE visible
30 Jan 2.2 00:11:14 10° WSW 00:14:15 37° SSW 00:14:15 37° SSW visible
30 Jan 1.9 22:19:10 10° WSW 22:23:08 41° S 22:27:06 10° ESE visible
31 Jan 1.7 00:00:38 10° WSW 00:04:07 44° SSW 00:04:07 44° SSW visible
31 Jan 1.3 23:50:02 10° WSW 23:53:57 53° S 23:53:57 53° S visible
01 Feb 0.9 23:39:25 10° WSW 23:43:34 63° SSE 23:43:47 61° SSE visible
02 Feb 0.8 23:28:48 10° WSW 23:32:58 75° SSE 23:33:37 60° ESE visible
03 Feb 0.7 23:18:11 10° WSW 23:22:23 90° NE 23:23:28 49° ENE visible
04 Feb 0.8 23:07:36 10° WSW 23:11:47 73° NNW 23:13:20 36° NE visible
05 Feb 1.1 22:57:03 10° W 23:01:09 57° NNW 23:03:15 26° NE visible
06 Feb 1.5 22:46:31 10° W 22:50:30 44° NNW 22:53:13 18° NE visible
07 Feb 2.0 22:36:04 10° W 22:39:51 34° NNW 22:43:14 12° NE visible
